Torna al catalogo

CZ-6A DEB

AttivoSSO
NORAD 56265·DEBRIS·🇨🇳 China

Lanciato Nov 11, 2022 da Taiyuan Satellite Launch Center

Loading…

Prossimi Passaggi (prossime 24 ore)

TLE

AggiornatoSource: Space-Track

Epoca: Sep 14, 2026, 17:39 UTC

1 56265U 22151ACH 26257.73606223  .00001331  00000-0  67631-3 0  9990
2 56265  98.8296 263.2073 0041331  77.0263 283.5522 14.17160221180032

Traccia CZ-6A DEB in tempo reale con AllMySat

Download on the App Store